Regional Weather Roundup
Issued by NWS Newport/Morehead, NC

Current Version | Previous Version | Graphics & Text | Print | Product List | Glossary Off
Versions: 1 2 3 4 5 6 7 8 9 10 11 12 13 14 15 16 17 18 19 20 21 22 23 24 25 26 27 28 29 30 31 32 33 34 35 36 37 38 39 40 41 42 43 44 45 46 47 48 49 50
000 ASUS42 KMHX 050026 RWRMHX WEATHER ROUNDUP FOR EASTERN NORTH CAROLINA NATIONAL WEATHER SERVICE NEWPORT/MOREHEAD CITY NC 800 PM EDT FRI SEP 04 2015 NOTE: "FAIR" INDICATES FEW OR NO CLOUDS BELOW 12,000 FEET WITH NO SIGNIFICANT WEATHER AND/OR OBSTRUCTIONS TO VISIBILITY NCZ015>017-031-032-045>047-102-103-050100- NORTH COAST CITY SKY/WX TMP DP RH WIND PRES REMARKS EDENTON FAIR 75 70 83 NE3 30.02R ELIZABETH CITY LGT RAIN 78 72 81 NE8 30.00S KITTY HAWK MOCLDY 79 73 80 NE8 29.99R MANTEO CLOUDY 79 73 83 NE13G18 30.00R $$ NCZ045>047-081-094-103-104-050100- CENTRAL COAST CITY SKY/WX TMP DP RH WIND PRES REMARKS FRISCO FAIR 79 72 79 NE6 29.97R SWANQUARTER N/A 77 N/A N/A N3G9 29.94S $$ NCZ095-097-098-100-101-050100- SOUTHERN COAST CITY SKY/WX TMP DP RH WIND PRES REMARKS BEAUFORT FAIR 79 71 76 N6 29.96R CEDAR ISLAND N/A 82 N/A N/A NE14G21 30.00F JACKSONVILLE FAIR 83 71 67 N8 29.97R PINEY ISLAND FAIR N/A N/A N/A NE15 29.97R WILMINGTON FAIR 81 70 69 CALM 29.96R $$ NCZ011>013-027>030-043-044-078>080-089-090>093-098-050100- COASTAL PLAIN CITY SKY/WX TMP DP RH WIND PRES REMARKS AHOSKIE FAIR 76 69 80 CALM 30.02R CLINTON LGT RAIN 73 73 100 CALM 30.00S ELIZABETHTOWN LGT RAIN 72 68 89 CALM 30.00F GOLDSBORO FAIR 75 71 86 N1 29.97F GREENVILLE FAIR 77 72 83 N3 30.02R HAVELOCK FAIR 76 70 82 NE6 29.98R THUNDER KENANSVILLE N/A 76 67 73 CALM 30.00S KINSTON FAIR 77 72 83 NE3 29.99S NEW BERN FAIR 80 71 74 NE6 29.99R RICHLANDS FAIR 81 68 65 N6 29.98S ROCKY MOUNT FAIR 73 70 90 CALM 30.00R WASHINGTON FAIR 76 71 85 NE6 30.00R WHITEVILLE FAIR 83 74 74 CALM 29.97S $$ AMZ130-135-150-152-154-156-158-170-250-252-270-ANZ085-086-088-633-658-670-050100- MARINE OBSERVATIONS STATION/POSITION TIME TEMP WIND PRES WAVE SWELL AIR SEA DIR/SP/G HT/PER HT/PER (UTC) (F) (DEG/KT/KT) (MB) (FT/S) (FT/S) CHESAPEAKE LIGHT 0000 79 70/ 19/ 21 1016.8 64 E VA BEACH 2350 80 80 60/ 17/ 19 1015.4 3/ 4 2/10 DUCK 0000 80 81 60/ 20/ 22 1015.1 2 E DUCK 2311 81 N/A 3/ 4 OREGON INLET 0000 80 83 40/ 14/ 18 1015.2 13E OREGON INLT 0000 81 N/A 3/ 4 HATTERAS CG 0000 81 84 30/ 11/ 13 1014.5 DIAMOND BUOY 2350 81 84 30/ 12/ 14 1014.5 1/ 3 CAPE LOOKOUT 0000 83 300/ 5/ 5 1014.3 BEAUFORT LAB 0000 80 83 360/ 5/ 10 1014.1 30 SE NEW RVR IN 2308 83 84 210/ 2/ 4 1014.5 30 SE NEW RVR IN 2325 84 N/A 1/11 27 SE WRIGHTSVLE 0000 79 83 180/ 2/ 2 N/A 5 SE WRIGHTSVLE 2308 83 83 210/ 6/ 8 1014.4 225 S CAPE HAT 2350 83 85 10/ 8/ 10 1013.2 1/11 2/11 41 SE CHARLESTON 2350 83 85 60/ 4/ 4 1014.1 1/ 8 2/ 8 $$

USA.gov is the U.S. government's official web portal to all federal, state and local government web resources and services.